Total_Precipitation_Accumulation
0.00 0.00 0.00 0.00 0.00 0.01 0.02 0.02 0.03 0.03 0.03 0.05 0.06 0.08 0.10 0.13 0.16 0.18 0.18 0.17 0.16 0.15 0.15 0.15 0.16 0.18 0.18 0.16 0.12 0.09 0.06 0.06 0.05 0.03 0.01 0.02 0.04 0.05 0.04 0.03 0.03 0.02 0.02
0.00 0.00 0.00 0.00 0.01 0.02 0.04 0.06 0.06 0.06 0.07 0.09 0.11 0.12 0.14 0.15 0.18 0.22 0.25 0.25 0.26 0.26 0.23 0.21 0.21 0.21 0.22 0.23 0.21 0.17 0.12 0.09 0.07 0.05 0.02 0.02 0.04 0.05 0.05 0.04 0.02 0.01 0.01
0.00 0.00 0.00 0.00 0.01 0.03 0.06 0.10 0.15 0.18 0.21 0.22 0.24 0.26 0.28 0.28 0.30 0.31 0.34 0.40 0.44 0.44 0.42 0.38 0.31 0.27 0.27 0.27 0.27 0.26 0.22 0.15 0.11 0.09 0.06 0.05 0.06 0.07 0.05 0.04 0.03 0.02 0.03
0.00 0.00 0.00 0.01 0.04 0.06 0.09 0.15 0.24 0.34 0.40 0.45 0.48 0.48 0.48 0.47 0.52 0.55 0.50 0.51 0.58 0.61 0.60 0.56 0.50 0.40 0.34 0.30 0.28 0.28 0.28 0.24 0.18 0.14 0.10 0.08 0.10 0.09 0.08 0.06 0.04 0.04 0.04
0.01 0.01 0.02 0.05 0.10 0.17 0.19 0.23 0.30 0.39 0.47 0.50 0.51 0.50 0.49 0.52 0.65 0.64 0.47 0.46 0.51 0.55 0.57 0.58 0.56 0.54 0.48 0.39 0.33 0.28 0.26 0.27 0.25 0.21 0.15 0.11 0.09 0.11 0.13 0.12 0.11 0.08 0.06
0.02 0.03 0.06 0.11 0.18 0.25 0.29 0.32 0.39 0.44 0.47 0.46 0.46 0.44 0.41 0.42 0.56 0.52 0.31 0.27 0.32 0.39 0.43 0.43 0.43 0.44 0.43 0.41 0.37 0.31 0.28 0.27 0.27 0.24 0.21 0.16 0.13 0.13 0.14 0.17 0.17 0.16 0.11
0.04 0.06 0.10 0.13 0.17 0.20 0.22 0.27 0.32 0.30 0.26 0.28 0.33 0.31 0.28 0.28 0.39 0.37 0.16 0.09 0.11 0.15 0.20 0.23 0.25 0.26 0.27 0.26 0.24 0.21 0.23 0.25 0.26 0.25 0.25 0.21 0.17 0.15 0.14 0.16 0.19 0.20 0.16
0.04 0.07 0.10 0.12 0.15 0.14 0.13 0.16 0.19 0.15 0.15 0.18 0.19 0.15 0.11 0.11 0.23 0.26 0.11 0.02 0.03 0.05 0.07 0.10 0.12 0.14 0.15 0.17 0.17 0.14 0.15 0.19 0.23 0.24 0.27 0.27 0.22 0.18 0.16 0.18 0.21 0.22 0.21
0.04 0.05 0.07 0.10 0.14 0.11 0.09 0.09 0.12 0.12 0.11 0.10 0.09 0.05 0.03 0.03 0.14 0.25 0.15 0.01 0.01 0.01 0.02 0.06 0.07 0.06 0.09 0.08 0.12 0.13 0.12 0.15 0.18 0.21 0.23 0.23 0.22 0.21 0.19 0.20 0.24 0.27 0.28
0.02 0.03 0.03 0.04 0.06 0.04 0.02 0.02 0.03 0.04 0.04 0.03 0.02 0.01 0.00 0.01 0.06 0.24 0.23 0.03 0.01 0.01 0.01 0.06 0.12 0.08 0.06 0.04 0.07 0.10 0.10 0.11 0.09 0.09 0.08 0.08 0.09 0.11 0.14 0.19 0.23 0.24 0.25
0.00 0.00 0.00 0.00 0.00 0.00 0.00 0.00 0.00 0.01 0.01 0.01 0.00 0.00 0.00 0.00 0.01 0.14 0.30 0.15 0.04 0.01 0.02 0.08 0.14 0.09 0.06 0.05 0.04 0.06 0.08 0.06 0.04 0.03 0.03 0.04 0.04 0.06 0.09 0.13 0.16 0.17 0.18
0.00 0.00 0.00 0.00 0.00 0.00 0.00 0.00 0.00 0.00 0.00 0.00 0.00 0.00 0.00 0.00 0.01 0.07 0.17 0.23 0.14 0.04 0.04 0.06 0.09 0.06 0.04 0.02 0.02 0.02 0.02 0.01 0.01 0.01 0.01 0.01 0.02 0.03 0.04 0.06 0.08 0.10 0.12
0.00 0.00 0.00 0.00 0.00 0.00 0.00 0.00 0.00 0.00 0.01 0.01 0.01 0.00 0.00 0.00 0.01 0.05 0.05 0.07 0.11 0.10 0.16 0.16 0.05 0.01 0.00 0.00 0.00 0.00 0.00 0.00 0.00 0.00 0.00 0.00 0.00 0.01 0.01 0.02 0.02 0.03 0.04
0.00 0.00 0.00 0.00 0.00 0.00 0.00 0.00 0.01 0.01 0.05 0.08 0.05 0.02 0.00 0.01 0.04 0.10 0.05 0.03 0.05 0.07 0.11 0.12 0.03 0.00 0.00 0.00 0.00 0.00 0.00 0.00 0.00 0.00 0.00 0.00 0.00 0.00 0.00 0.00 0.00 0.01 0.01
0.00 0.00 0.00 0.00 0.00 0.00 0.00 0.00 0.01 0.03 0.10 0.17 0.10 0.06 0.04 0.06 0.13 0.17 0.13 0.13 0.13 0.10 0.05 0.03 0.01 0.00 0.00 0.00 0.00 0.00 0.00 0.00 0.00 0.00 0.00 0.00 0.00 0.00 0.00 0.00 0.00 0.00 0.00
0.00 0.00 0.01 0.01 0.01 0.01 0.01 0.00 0.01 0.02 0.05 0.06 0.06 0.07 0.07 0.12 0.14 0.10 0.10 0.13 0.13 0.10 0.03 0.01 0.01 0.00 0.00 0.00 0.00 0.00 0.00 0.00 0.00 0.00 0.00 0.00 0.00 0.00 0.00 0.00 0.00 0.00 0.00
0.01 0.01 0.02 0.01 0.01 0.01 0.01 0.02 0.01 0.01 0.01 0.01 0.02 0.03 0.06 0.11 0.08 0.06 0.08 0.09 0.08 0.04 0.01 0.00 0.00 0.00 0.00 0.00 0.00 0.00 0.00 0.00 0.00 0.00 0.00 0.00 0.00 0.00 0.00 0.00 0.00 0.00 0.00
0.01 0.01 0.02 0.02 0.02 0.03 0.03 0.03 0.03 0.02 0.01 0.00 0.00 0.01 0.03 0.06 0.05 0.03 0.06 0.05 0.02 0.01 0.01 0.00 0.00 0.00 0.00 0.00 0.00 0.00 0.00 0.00 0.00 0.00 0.00 0.00 0.00 0.00 0.00 0.00 0.00 0.00 0.00
0.01 0.02 0.03 0.03 0.03 0.03 0.03 0.03 0.03 0.02 0.02 0.01 0.00 0.00 0.00 0.01 0.01 0.01 0.01 0.01 0.00 0.00 0.00 0.00 0.00 0.00 0.00 0.00 0.00 0.00 0.00 0.00 0.00 0.00 0.00 0.00 0.00 0.00 0.00 0.00 0.00 0.00 0.00
0.00 0.01 0.03 0.03 0.03 0.03 0.03 0.03 0.03 0.03 0.02 0.01 0.01 0.00 0.01 0.00 0.00 0.00 0.00 0.00 0.00 0.00 0.00 0.00 0.00 0.00 0.00 0.00 0.00 0.00 0.00 0.00 0.00 0.00 0.00 0.00 0.00 0.00 0.00 0.00 0.00 0.00 0.00
0.01 0.01 0.02 0.02 0.02 0.03 0.04 0.04 0.04 0.04 0.03 0.02 0.01 0.01 0.06 0.04 0.01 0.00 0.00 0.00 0.00 0.00 0.00 0.00 0.00 0.00 0.00 0.00 0.00 0.00 0.00 0.00 0.00 0.00 0.00 0.00 0.00 0.00 0.00 0.00 0.00 0.00 0.00
0.02 0.03 0.03 0.04 0.04 0.04 0.05 0.04 0.04 0.04 0.03 0.03 0.01 0.01 0.03 0.02 0.00 0.00 0.00 0.00 0.00 0.00 0.00 0.00 0.00 0.00 0.00 0.00 0.00 0.00 0.00 0.00 0.00 0.00 0.00 0.00 0.00 0.00 0.00 0.00 0.00 0.00 0.01
0.05 0.05 0.03 0.02 0.02 0.02 0.02 0.02 0.03 0.03 0.03 0.02 0.02 0.01 0.01 0.00 0.00 0.00 0.00 0.00 0.00 0.00 0.00 0.00 0.00 0.00 0.00 0.00 0.00 0.00 0.00 0.00 0.00 0.00 0.00 0.00 0.00 0.00 0.00 0.00 0.00 0.01 0.01
0.05 0.03 0.02 0.02 0.01 0.02 0.02 0.02 0.03 0.04 0.04 0.03 0.02 0.02 0.01 0.00 0.00 0.00 0.00 0.00 0.00 0.00 0.00 0.00 0.00 0.00 0.00 0.00 0.00 0.00 0.00 0.00 0.00 0.01 0.01 0.01 0.01 0.01 0.01 0.01 0.01 0.01 0.01
0.01 0.01 0.02 0.02 0.03 0.03 0.03 0.03 0.03 0.04 0.04 0.04 0.03 0.02 0.01 0.01 0.00 0.00 0.00 0.00 0.00 0.00 0.00 0.00 0.00 0.00 0.00 0.00 0.00 0.00 0.00 0.01 0.04 0.09 0.14 0.16 0.14 0.09 0.07 0.06 0.04 0.03 0.03
0.01 0.02 0.03 0.04 0.04 0.04 0.05 0.06 0.05 0.06 0.06 0.05 0.04 0.03 0.02 0.01 0.00 0.00 0.00 0.00 0.00 0.00 0.00 0.00 0.00 0.00 0.00 0.00 0.00 0.00 0.02 0.06 0.16 0.28 0.35 0.31 0.20 0.11 0.07 0.06 0.04 0.04 0.04